Surface/Precipitation History
01/18/2018 06:20  to  1/19/2018 06:20
Change End Date:
Date/Time
(MST)
Sf
Temp Chem Water Layer Surface Precipitation
Sfc Pvt Sub Frz Factor Pct Dpth DpthThk IcePct Cond Salin FI Type Intens Accum Rate
01/19/2018 06:13 Ice Warning 30.6F - - 32F 95 0% - - 100% 0 mhos 0 - Yes - - -
01/19/2018 06:12 Ice Warning 30.7F - - 32F 95 0% - - 100% 0 mhos 0 - Yes - - -
01/19/2018 06:02 Ice Warning 30.4F - - 32F 95 0% - - 100% 0 mhos 0 - None None - -
01/19/2018 05:58 Ice Warning 30.4F - - 32F 95 0% - - 100% 0 mhos 0 - None None - -
01/19/2018 05:51 Ice Warning 30.2F - - 32F 95 0% - - 100% 0 mhos 0 - None None - -
01/19/2018 05:43 Ice Warning 30.2F - - 32F 95 0% - - 100% 0 mhos 0 - None None - -
01/19/2018 05:41 Ice Warning 30.2F - - 32F 95 0% - - 100% 0 mhos 0 - None None - -
01/19/2018 05:31 Ice Warning 29.5F - - 32F 95 0% - - 100% 0 mhos 0 - None None - -
01/19/2018 05:28 Ice Warning 29.1F - - 32F 95 0% - - 100% 0 mhos 0 - None None - -
01/19/2018 05:21 Ice Warning 29.1F - - 32F 95 0% - - 100% 0 mhos 0 - None None - -
01/19/2018 05:13 Ice Warning 28.4F - - 32F 95 0% - - 100% 0 mhos 0 - None None - -
01/19/2018 05:11 Ice Warning 28.2F - - 32F 95 0% - - 100% 0 mhos 0 - None None - -
01/19/2018 05:01 Ice Warning 30.6F - - 32F 65 0% - - 100% 0 mhos 0 - None None - -
01/19/2018 04:58 Ice Warning 30.6F - - 32F 65 0% - - 100% 0 mhos 0 - None None - -
01/19/2018 04:51 Ice Warning 30.4F - - 32F 65 0% - - 100% 0 mhos 0 - None None - -
Date/Time
(MST)
Sf
Temp Chem Water Layer Surface Precipitation
Sfc Pvt Sub Frz Factor Pct Dpth DpthThk IcePct Cond Salin FI Type Intens Accum Rate
01/19/2018 04:43 Ice Warning 30.4F - - 32F 60 0% - - 100% 0 mhos 0 - None None - -
01/19/2018 04:41 Ice Warning 30.4F - - 32F 60 0% - - 100% 0 mhos 0 - None None - -
01/19/2018 04:31 Ice Warning 30.2F - - 32F 70 0% - - 100% 0 mhos 0 - None None - -
01/19/2018 04:28 Ice Warning 30.4F - - 32F 75 0% - - 100% 0 mhos 0 - None None - -
01/19/2018 04:21 Ice Warning 30.6F - - 32F 65 0% - - 100% 0 mhos 0 - None None - -
01/19/2018 04:13 Ice Warning 30.4F - - 32F 45 0% - - 100% 0 mhos 0 - None None - -
01/19/2018 04:11 Ice Warning 30.4F - - 32F 50 0% - - 100% 0 mhos 0 - None None - -
01/19/2018 04:01 Ice Warning 30.6F - - 32F 55 0% - - 100% 0 mhos 0 - None None - -
01/19/2018 03:58 Ice Warning 30.7F - - 32F 60 0% - - 100% 0 mhos 0 - None None - -
01/19/2018 03:51 Ice Warning 30.6F - - 32F 40 0% - - 100% 0 mhos 0 - None None - -
01/19/2018 03:43 Ice Warning 30.6F - - 32F 45 0% - - 100% 0 mhos 0 - None None - -
01/19/2018 03:41 Ice Warning 30.6F - - 32F 45 0% - - 100% 0 mhos 0 - None None - -
01/19/2018 03:31 Ice Warning 31.5F - - 32F 55 0% - - 100% 0 mhos 0 - None None - -
01/19/2018 03:28 Ice Warning 31.5F - - 32F 60 0% - - 100% 0 mhos 0 - None None - -
01/19/2018 03:21 Ice Warning 31.3F - - 32F 20 0% - - 100% 0 mhos 0 - None None - -
Date/Time
(MST)
Sf
Temp Chem Water Layer Surface Precipitation
Sfc Pvt Sub Frz Factor Pct Dpth DpthThk IcePct Cond Salin FI Type Intens Accum Rate
01/19/2018 03:13 Ice Warning 31.5F - - 32F 20 0% - - 100% 0 mhos 0 - None None - -
01/19/2018 03:11 Ice Warning 31.5F - - 32F 25 0% - - 100% 0 mhos 0 - None None - -
01/19/2018 03:01 Ice Warning 31.5F - - 32F 15 0% - - 100% 0 mhos 0 - None None - -
01/19/2018 02:58 Ice Warning 31.5F - - 32F 15 0% - - 100% 0 mhos 0 - None None - -
01/19/2018 02:51 Ice Warning 31.5F - - 32F 20 0% - - 100% 0 mhos 0 - None None - -
01/19/2018 02:43 Ice Warning 31.5F - - 32F 20 0% - - 100% 0 mhos 0 - None None - -
01/19/2018 02:41 Ice Warning 31.5F - - 32F 20 0% - - 100% 0 mhos 0 - None None - -
01/19/2018 02:31 Ice Warning 31.5F - - 32F 25 0% - - 100% 0 mhos 0 - None None - -
01/19/2018 02:28 Ice Warning 31.5F - - 32F 25 0% - - 100% 0 mhos 0 - Yes - - -
01/19/2018 02:20 Ice Warning 31.3F - - 32F 15 0% - - 100% 0 mhos 0 - None None - -
01/19/2018 02:13 Ice Warning 31.5F - - 32F 25 0% - - 100% 0 mhos 0 - None None - -
01/19/2018 02:10 Ice Warning 31.5F - - 32F 25 0% - - 100% 0 mhos 0 - None None - -
01/19/2018 02:00 Ice Warning 31.5F - - 32F 5 0% - - 100% 0 mhos 0 - None None - -
01/19/2018 01:58 Ice Warning 31.5F - - 32F 5 0% - - 100% 0 mhos 0 - None None - -
01/19/2018 01:50 Ice Warning 31.8F - - 32F 5 0% - - 100% 0 mhos 0 - None None - -
Date/Time
(MST)
Sf
Temp Chem Water Layer Surface Precipitation
Sfc Pvt Sub Frz Factor Pct Dpth DpthThk IcePct Cond Salin FI Type Intens Accum Rate
01/19/2018 01:43 Ice Warning 31.8F - - 32F 5 0% - - 100% 0 mhos 0 - Yes - - -
01/19/2018 01:40 Ice Warning 31.8F - - 32F 5 0% - - 100% 0 mhos 0 - None None - -
01/19/2018 01:30 Ice Warning 31.8F - - 32F 5 0% - - 100% 0 mhos 0 - None None - -
01/19/2018 01:28 Ice Warning 32.0F - - 32F 5 0% - - 100% 0 mhos 0 - Yes - - -
01/19/2018 01:20 Ice Warning 32.0F - - 32F 5 0% - - 100% 0 mhos 0 - Yes - - -
01/19/2018 01:13 Ice Warning 32.0F - - 32F 5 0% - - 100% 0 mhos 0 - Yes - - -
01/19/2018 01:10 Wet 32.2F - - 32F 5 0% 0.00 in - 0% 0 mhos 0 - Yes - - -
01/19/2018 01:00 Wet 32.2F - - 32F 5 0% 0.00 in - 0% 0 mhos 0 - Yes - - -
01/19/2018 00:58 Wet 32.2F - - 32F 5 0% 0.00 in - 0% 0 mhos 0 - Yes - - -
01/19/2018 00:50 Wet 32.2F - - 32F 5 0% 0.00 in - 0% 0 mhos 0 - Yes - - -
01/19/2018 00:43 Wet 32.2F - - 32F 5 0% 0.00 in - 0% 0 mhos 0 - Yes - - -
01/19/2018 00:40 Wet 32.2F - - 32F 5 0% 0.00 in - 0% 0 mhos 0 - Yes - - -
01/19/2018 00:30 Wet 32.2F - - 32F 5 0% 0.00 in - 0% 0 mhos 0 - Yes - - -
01/19/2018 00:28 Wet 32.2F - - 32F 5 0% 0.00 in - 0% 0 mhos 0 - Yes - - -
01/19/2018 00:20 Wet 32.2F - - 32F 5 0% 0.00 in - 0% 0 mhos 0 - Yes - - -
Date/Time
(MST)
Sf
Temp Chem Water Layer Surface Precipitation
Sfc Pvt Sub Frz Factor Pct Dpth DpthThk IcePct Cond Salin FI Type Intens Accum Rate
01/19/2018 00:13 Wet 32.2F - - 32F 5 0% 0.00 in - 0% 0 mhos 0 - Yes - - -
01/19/2018 00:10 Wet 32.2F - - 32F 5 0% 0.00 in - 0% 0 mhos 0 - Yes - - -
01/19/2018 00:00 Wet 32.2F - - 32F 5 0% 0.00 in - 0% 0 mhos 0 - Yes - - -
01/18/2018 23:58 Wet 32.2F - - 32F 5 0% 0.00 in - 0% 0 mhos 0 - Yes - - -
01/18/2018 23:50 Wet 32.2F - - 32F 10 0% 0.10 in - 0% 0 mhos 0 - Yes - - -
01/18/2018 23:43 Wet 32.4F - - 32F 5 0% 0.00 in - 0% 0 mhos 0 - Yes - - -
01/18/2018 23:40 Wet 32.5F - - 32F 5 0% 0.00 in - 0% 0 mhos 0 - Yes - - -
01/18/2018 23:30 Wet 32.7F - - 32F 20 0% 0.10 in - 0% 0 mhos 0 - Yes - - -
01/18/2018 23:28 Wet 32.5F - - 32F 10 0% 0.00 in - 0% 0 mhos 0 - Yes - - -
01/18/2018 23:20 Wet 32.5F - - 32F 5 0% 0.00 in - 0% 0 mhos 0 - Yes - - -
01/18/2018 23:13 Wet 32.5F - - 32F 10 0% 0.00 in - 0% 0 mhos 0 - Yes - - -
01/18/2018 23:10 Wet 32.7F - - 32F 25 0% 0.10 in - 0% 0 mhos 0 - Yes - - -
01/18/2018 23:00 Wet 32.7F - - 32F 20 0% 0.10 in - 0% 0 mhos 0 - Yes - - -
01/18/2018 22:58 Wet 32.7F - - 32F 5 0% 0.00 in - 0% 0 mhos 0 - Yes - - -
01/18/2018 22:50 Wet 32.7F - - 32F 15 0% 0.10 in - 0% 0 mhos 0 - Yes - - -
Date/Time
(MST)
Sf
Temp Chem Water Layer Surface Precipitation
Sfc Pvt Sub Frz Factor Pct Dpth DpthThk IcePct Cond Salin FI Type Intens Accum Rate
01/18/2018 22:43 Wet 32.7F - - 32F 20 0% 0.10 in - 0% 0 mhos 0 - Yes - - -
01/18/2018 22:39 Wet 32.7F - - 32F 20 0% 0.10 in - 0% 0 mhos 0 - Yes - - -
01/18/2018 22:29 Wet 32.7F - - 32F 30 0% 0.10 in - 0% 0 mhos 0 - Yes - - -
01/18/2018 22:28 Wet 32.7F - - 32F 35 0% 0.10 in - 0% 0 mhos 0 - Yes - - -
01/18/2018 22:19 Wet 32.7F - - 32F 15 0% 0.10 in - 0% 0 mhos 0 - Yes - - -
01/18/2018 22:13 Wet 32.7F - - 32F 15 0% 0.10 in - 0% 0 mhos 0 - Yes - - -
01/18/2018 22:09 Wet 32.7F - - 32F 20 0% 0.10 in - 0% 0 mhos 0 - Yes - - -
01/18/2018 21:59 Wet 32.9F - - 32F 45 0% 0.10 in - 0% 0 mhos 0 - Yes - - -
01/18/2018 21:58 Wet 33.1F - - 32F 50 0% 0.10 in - 0% 0 mhos 0 - Yes - - -
01/18/2018 21:49 Wet 33.1F - - 32F 25 0% 0.10 in - 0% 0 mhos 0 - Yes - - -
01/18/2018 21:43 Wet 33.1F - - 32F 10 0% 0.00 in - 0% 0 mhos 0 - Yes - - -
01/18/2018 21:39 Wet 33.1F - - 32F 20 0% 0.10 in - 0% 0 mhos 0 - Yes - - -
01/18/2018 21:29 Wet 33.1F - - 32F 45 0% 0.10 in - 0% 0 mhos 0 - Yes - - -
01/18/2018 21:28 Wet 33.1F - - 32F 45 0% 0.10 in - 0% 0 mhos 0 - Yes - - -
01/18/2018 21:19 Wet 33.3F - - 32F 50 0% 0.10 in - 0% 0 mhos 0 - Yes - - -
Date/Time
(MST)
Sf
Temp Chem Water Layer Surface Precipitation
Sfc Pvt Sub Frz Factor Pct Dpth DpthThk IcePct Cond Salin FI Type Intens Accum Rate
01/18/2018 21:13 Wet 33.3F - - 32F 65 0% 0.20 in - 0% 0 mhos 0 - Yes - - -
01/18/2018 21:09 Wet 33.4F - - 32F 35 0% 0.10 in - 0% 0 mhos 0 - Yes - - -
01/18/2018 20:59 Wet 33.4F - - 32F 25 0% 0.10 in - 0% 0 mhos 0 - Yes - - -
01/18/2018 20:58 Wet 33.4F - - 32F 25 0% 0.10 in - 0% 0 mhos 0 - Yes - - -
01/18/2018 20:49 Wet 33.6F - - 32F 35 0% 0.10 in - 0% 0 mhos 0 - Yes - - -
01/18/2018 20:43 Wet 33.6F - - 32F 40 0% 0.10 in - 0% 0 mhos 0 - Yes - - -
01/18/2018 20:39 Wet 33.6F - - 32F 55 0% 0.20 in - 0% 0 mhos 0 - Yes - - -
01/18/2018 20:29 Wet 33.6F - - 32F 55 0% 0.10 in - 0% 0 mhos 0 - Yes - - -
01/18/2018 20:28 Wet 33.6F - - 32F 55 0% 0.10 in - 0% 0 mhos 0 - Yes - - -
01/18/2018 20:19 Wet 33.6F - - 32F 50 0% 0.10 in - 0% 0 mhos 0 - Yes - - -
01/18/2018 20:14 Wet 33.6F - - 32F 50 0% 0.10 in - 0% 0 mhos 0 - Yes - - -
01/18/2018 20:09 Wet 33.6F - - 32F 70 0% 0.20 in - 0% 0 mhos 0 - Yes - - -
01/18/2018 19:59 Wet 33.8F - - 32F 65 0% 0.20 in - 0% 0 mhos 0 - Yes - - -
01/18/2018 19:58 Wet 33.8F - - 32F 65 0% 0.20 in - 0% 0 mhos 0 - Yes - - -
01/18/2018 19:49 Wet 33.8F - - 32F 75 0% 0.20 in - 0% 0 mhos 0 - Yes - - -
Date/Time
(MST)
Sf
Temp Chem Water Layer Surface Precipitation
Sfc Pvt Sub Frz Factor Pct Dpth DpthThk IcePct Cond Salin FI Type Intens Accum Rate
01/18/2018 19:43 Wet 34.0F - - 32F 70 0% 0.20 in - 0% 0 mhos 0 - Yes - - -
01/18/2018 19:39 Wet 33.8F - - 32F 60 0% 0.20 in - 0% 0 mhos 0 - Yes - - -
01/18/2018 19:29 Wet 34.0F - - 32F 90 0% 0.40 in - 0% 0 mhos 0 - Yes - - -
01/18/2018 19:28 Wet 34.0F - - 32F 90 0% 0.40 in - 0% 0 mhos 0 - Yes - - -
01/18/2018 19:19 Wet 34.2F - - 32F 95 0% 0.50 in - 0% 0 mhos 0 - Yes - - -
01/18/2018 19:13 Wet 34.2F - - 32F 90 0% 0.30 in - 0% 0 mhos 0 - Yes - - -
01/18/2018 19:09 Wet 34.2F - - 32F 95 0% 1.20 in - 0% 0 mhos 0 - Yes - - -
01/18/2018 18:58 Wet 34.2F - - 32F 95 0% 0.00 in - 0% 0 mhos 0 - Yes - - -
01/18/2018 18:58 Wet 34.2F - - 32F 95 0% 0.00 in - 0% 0 mhos 0 - Yes - - -
01/18/2018 18:48 Wet 34.5F - - 32F 95 0% 0.00 in - 0% 0 mhos 0 - Yes - - -
01/18/2018 18:43 Wet 34.5F - - 32F 95 0% 0.00 in - 0% 0 mhos 0 - Yes - - -
01/18/2018 18:38 Wet 34.3F - - 32F 95 0% 0.00 in - 0% 0 mhos 0 - Yes - - -
01/18/2018 18:28 Wet 34.5F - - 32F 95 0% 0.00 in - 0% 0 mhos 0 - Yes - - -
01/18/2018 18:18 Wet 34.9F - - 32F 95 0% 0.00 in - 0% 0 mhos 0 - Yes - - -
01/18/2018 18:13 Wet 34.7F - - 32F 95 0% 0.00 in - 0% 0 mhos 0 - Yes - - -
Date/Time
(MST)
Sf
Temp Chem Water Layer Surface Precipitation
Sfc Pvt Sub Frz Factor Pct Dpth DpthThk IcePct Cond Salin FI Type Intens Accum Rate
01/18/2018 18:08 Wet 34.9F - - 32F 95 0% 0.00 in - 0% 0 mhos 0 - Yes - - -
01/18/2018 17:58 Wet 34.9F - - 32F 95 0% 0.00 in - 0% 0 mhos 0 - Yes - - -
01/18/2018 17:58 Wet 34.9F - - 32F 95 0% 0.00 in - 0% 0 mhos 0 - Yes - - -
01/18/2018 17:48 Wet 34.9F - - 32F 95 0% 0.00 in - 0% 0 mhos 0 - Yes - - -
01/18/2018 17:43 Wet 34.9F - - 32F 95 0% 0.00 in - 0% 0 mhos 0 - Yes - - -
01/18/2018 17:38 Wet 35.1F - - 32F 95 0% 0.00 in - 0% 0 mhos 0 - Yes - - -
01/18/2018 17:28 Wet 35.2F - - 32F 95 0% 0.00 in - 0% 0 mhos 0 - Yes - - -
01/18/2018 17:28 Wet 35.2F - - 32F 95 0% 0.00 in - 0% 0 mhos 0 - Yes - - -
01/18/2018 17:18 Wet 35.6F - - 32F 95 0% 0.00 in - 0% 0 mhos 0 - Yes - - -
01/18/2018 17:13 Wet 35.6F - - 32F 95 0% 0.00 in - 0% 0 mhos 0 - Yes - - -
01/18/2018 17:08 Wet 35.8F - - 32F 95 0% 0.00 in - 0% 0 mhos 0 - Yes - - -
01/18/2018 16:58 Wet 36.0F - - 32F 95 0% 0.00 in - 0% 0 mhos 0 - Yes - - -
01/18/2018 16:48 Wet 36.1F - - 32F 95 0% 0.00 in - 0% 0 mhos 0 - Yes - - -
01/18/2018 16:43 Wet 36.3F - - 32F 95 0% 0.00 in - 0% 0 mhos 0 - Yes - - -
01/18/2018 16:38 Wet 36.5F - - 32F 95 0% 0.00 in - 0% 0 mhos 0 - Yes - - -
Date/Time
(MST)
Sf
Temp Chem Water Layer Surface Precipitation
Sfc Pvt Sub Frz Factor Pct Dpth DpthThk IcePct Cond Salin FI Type Intens Accum Rate
01/18/2018 16:28 Wet 36.9F - - 32F 95 0% 0.00 in - 0% 0 mhos 0 - Yes - - -
01/18/2018 16:28 Wet 36.9F - - 32F 95 0% 0.00 in - 0% 0 mhos 0 - Yes - - -
01/18/2018 16:18 Wet 37.4F - - 32F 95 0% 0.00 in - 0% 0 mhos 0 - Yes - - -
01/18/2018 16:13 Wet 37.4F - - 32F 95 0% 0.00 in - 0% 0 mhos 0 - Yes - - -
01/18/2018 16:08 Wet 37.8F - - 32F 95 0% 0.00 in - 0% 0 mhos 0 - Yes - - -
01/18/2018 15:58 Wet 38.3F - - 32F 95 0% 0.00 in - 0% 0 mhos 0 - Yes - - -
01/18/2018 15:58 Wet 38.3F - - 32F 95 0% 0.00 in - 0% 0 mhos 0 - Yes - - -
01/18/2018 15:48 Wet 38.7F - - 32F 95 0% 0.00 in - 0% 0 mhos 0 - Yes - - -
01/18/2018 15:43 Wet 39.4F - - 32F 95 0% 0.00 in - 0% 0 mhos 0 - Yes - - -
01/18/2018 15:38 Wet 39.9F - - 32F 95 0% 0.00 in - 0% 0 mhos 0 - Yes - - -
01/18/2018 15:28 Wet 40.6F - - 32F 55 0% 0.00 in - 0% 0 mhos 0 - Yes - - -
01/18/2018 15:27 Wet 40.6F - - 32F 55 0% 0.00 in - 0% 0 mhos 0 - None None - -
01/18/2018 15:17 Dry 41.0F - - - - - - - - 0 mhos 0 - None None - -
01/18/2018 15:13 Dry 41.2F - - - - - - - - 0 mhos 0 - None None - -
01/18/2018 15:07 Dry 41.4F - - - - - - - - 0 mhos 0 - None None - -
Date/Time
(MST)
Sf
Temp Chem Water Layer Surface Precipitation
Sfc Pvt Sub Frz Factor Pct Dpth DpthThk IcePct Cond Salin FI Type Intens Accum Rate
01/18/2018 14:58 Dry 42.4F - - - - - - - - 0 mhos 0 - None None - -
01/18/2018 14:57 Dry 42.4F - - - - - - - - 0 mhos 0 - None None - -
01/18/2018 14:47 Dry 42.1F - - - - - - - - 0 mhos 0 - None None - -
01/18/2018 14:43 Dry 42.1F - - - - - - - - 0 mhos 0 - None None - -
01/18/2018 14:37 Dry 42.3F - - - - - - - - 0 mhos 0 - None None - -
01/18/2018 14:28 Dry 42.6F - - - - - - - - 0 mhos 0 - None None - -
01/18/2018 14:27 Dry 42.8F - - - - - - - - 0 mhos 0 - None None - -
01/18/2018 14:17 Dry 42.8F - - - - - - - - 0 mhos 0 - None None - -
01/18/2018 14:13 Dry 42.8F - - - - - - - - 0 mhos 0 - None None - -
01/18/2018 14:07 Dry 42.8F - - - - - - - - 0 mhos 0 - None None - -
01/18/2018 13:58 Dry 43.0F - - - - - - - - 0 mhos 0 - None None - -
01/18/2018 13:57 Dry 43.2F - - - - - - - - 0 mhos 0 - None None - -
01/18/2018 13:47 Dry 43.5F - - - - - - - - 0 mhos 0 - None None - -
01/18/2018 13:43 Dry 43.7F - - - - - - - - 0 mhos 0 - None None - -
01/18/2018 13:37 Dry 43.5F - - - - - - - - 0 mhos 0 - None None - -
Date/Time
(MST)
Sf
Temp Chem Water Layer Surface Precipitation
Sfc Pvt Sub Frz Factor Pct Dpth DpthThk IcePct Cond Salin FI Type Intens Accum Rate
01/18/2018 13:28 Dry 43.9F - - - - - - - - 0 mhos 0 - None None - -
01/18/2018 13:27 Dry 43.9F - - - - - - - - 0 mhos 0 - None None - -
01/18/2018 13:17 Dry 44.1F - - - - - - - - 0 mhos 0 - None None - -
01/18/2018 13:13 Dry 44.1F - - - - - - - - 0 mhos 0 - None None - -
01/18/2018 13:07 Dry 44.1F - - - - - - - - 0 mhos 0 - None None - -
01/18/2018 12:58 Dry 43.7F - - - - - - - - 0 mhos 0 - None None - -
01/18/2018 12:57 Dry 43.5F - - - - - - - - 0 mhos 0 - None None - -
01/18/2018 12:47 Dry 43.5F - - - - - - - - 0 mhos 0 - None None - -
01/18/2018 12:43 Dry 43.5F - - - - - - - - 0 mhos 0 - None None - -
01/18/2018 12:37 Dry 43.9F - - - - - - - - 0 mhos 0 - None None - -
01/18/2018 12:28 Dry 44.2F - - - - - - - - 0 mhos 0 - None None - -
01/18/2018 12:27 Dry 44.4F - - - - - - - - 0 mhos 0 - None None - -
01/18/2018 12:17 Dry 44.6F - - - - - - - - 0 mhos 0 - None None - -
01/18/2018 12:13 Dry 45.0F - - - - - - - - 0 mhos 0 - None None - -
01/18/2018 12:07 Dry 46.4F - - - - - - - - 0 mhos 0 - None None - -
Date/Time
(MST)
Sf
Temp Chem Water Layer Surface Precipitation
Sfc Pvt Sub Frz Factor Pct Dpth DpthThk IcePct Cond Salin FI Type Intens Accum Rate
01/18/2018 11:58 Dry 47.1F - - - - - - - - 0 mhos 0 - None None - -
01/18/2018 11:56 Dry 47.7F - - - - - - - - 0 mhos 0 - None None - -
01/18/2018 11:46 Dry 50.0F - - - - - - - - 0 mhos 0 - None None - -
01/18/2018 11:43 Dry 50.5F - - - - - - - - 0 mhos 0 - None None - -
01/18/2018 11:36 Dry 49.8F - - - - - - - - 0 mhos 0 - None None - -
01/18/2018 11:28 Dry 49.6F - - - - - - - - 0 mhos 0 - None None - -
01/18/2018 11:26 Dry 49.8F - - - - - - - - 0 mhos 0 - None None - -
01/18/2018 11:16 Dry 45.0F - - - - - - - - 0 mhos 0 - None None - -
01/18/2018 11:13 Dry 44.1F - - - - - - - - 0 mhos 0 - None None - -
01/18/2018 11:06 Dry 42.3F - - - - - - - - 0 mhos 0 - None None - -
01/18/2018 10:58 Dry 41.0F - - - - - - - - 0 mhos 0 - None None - -
01/18/2018 10:56 Dry 40.5F - - - - - - - - 0 mhos 0 - None None - -
01/18/2018 10:46 Dry 39.4F - - - - - - - - 0 mhos 0 - None None - -
01/18/2018 10:43 Dry 38.7F - - - - - - - - 0 mhos 0 - None None - -
01/18/2018 10:36 Dry 37.8F - - - - - - - - 0 mhos 0 - None None - -
Date/Time
(MST)
Sf
Temp Chem Water Layer Surface Precipitation
Sfc Pvt Sub Frz Factor Pct Dpth DpthThk IcePct Cond Salin FI Type Intens Accum Rate
01/18/2018 10:28 Trace Moisture 37.2F - - - 5 - - - - 0 mhos 0 - None None - -
01/18/2018 10:26 Trace Moisture 36.9F - - - 5 - - - - 0 mhos 0 - None None - -
01/18/2018 10:16 Trace Moisture 36.0F - - - 50 - - - - 0 mhos 0 - None None - -
01/18/2018 10:13 Trace Moisture 36.0F - - - 50 - - - - 0 mhos 0 - None None - -
01/18/2018 10:06 Trace Moisture 35.6F - - - 55 - - - - 0 mhos 0 - None None - -
01/18/2018 09:58 Trace Moisture 35.1F - - - 70 - - - - 0 mhos 0 - None None - -
01/18/2018 09:56 Trace Moisture 34.9F - - - 75 - - - - 0 mhos 0 - None None - -
01/18/2018 09:46 Trace Moisture 34.5F - - - 80 - - - - 0 mhos 0 - None None - -
01/18/2018 09:43 Trace Moisture 34.5F - - - 85 - - - - 0 mhos 0 - None None - -
01/18/2018 09:36 Trace Moisture 34.2F - - - 75 - - - - 0 mhos 0 - None None - -
01/18/2018 09:28 Trace Moisture 33.8F - - - 75 - - - - 0 mhos 0 - None None - -
01/18/2018 09:26 Trace Moisture 33.8F - - - 75 - - - - 0 mhos 0 - None None - -
01/18/2018 09:16 Trace Moisture 33.1F - - - 80 - - - - 0 mhos 0 - None None - -
01/18/2018 09:13 Trace Moisture 32.9F - - - 85 - - - - 0 mhos 0 - None None - -
01/18/2018 09:06 Trace Moisture 32.7F - - - 85 - - - - 0 mhos 0 - None None - -
Date/Time
(MST)
Sf
Temp Chem Water Layer Surface Precipitation
Sfc Pvt Sub Frz Factor Pct Dpth DpthThk IcePct Cond Salin FI Type Intens Accum Rate
01/18/2018 08:58 Trace Moisture 32.2F - - - 70 - - - - 0 mhos 0 - None None - -
01/18/2018 08:56 Ice Watch 31.8F - - - 80 - - - - 0 mhos 0 - None None - -
01/18/2018 08:46 Ice Watch 31.3F - - - 70 - - - - 0 mhos 0 - None None - -
01/18/2018 08:43 Ice Watch 30.9F - - - 65 - - - - 0 mhos 0 - None None - -
01/18/2018 08:36 Ice Watch 31.1F - - - 65 - - - - 0 mhos 0 - None None - -
01/18/2018 08:28 Ice Watch 30.9F - - - 95 - - - - 0 mhos 0 - None None - -
01/18/2018 08:26 Ice Watch 30.9F - - - 90 - - - - 0 mhos 0 - None None - -
01/18/2018 08:15 Ice Watch 30.6F - - - 90 - - - - 0 mhos 0 - None None - -
01/18/2018 08:13 Ice Watch 30.4F - - - 85 - - - - 0 mhos 0 - None None - -
01/18/2018 08:05 Ice Watch 30.4F - - - 95 - - - - 0 mhos 0 - None None - -
01/18/2018 07:58 Ice Watch 30.4F - - - 95 - - - - 0 mhos 0 - None None - -
01/18/2018 07:55 Ice Watch 30.6F - - - 95 - - - - 0 mhos 0 - None None - -
01/18/2018 07:45 Ice Watch 30.2F - - - 95 - - - - 0 mhos 0 - None None - -
01/18/2018 07:43 Ice Watch 30.2F - - - 85 - - - - 0 mhos 0 - None None - -
01/18/2018 07:35 Ice Watch 30.2F - - - 70 - - - - 0 mhos 0 - None None - -
Date/Time
(MST)
Sf
Temp Chem Water Layer Surface Precipitation
Sfc Pvt Sub Frz Factor Pct Dpth DpthThk IcePct Cond Salin FI Type Intens Accum Rate
01/18/2018 07:28 Ice Watch 30.2F - - - 75 - - - - 0 mhos 0 - None None - -
01/18/2018 07:25 Ice Watch 30.2F - - - 70 - - - - 0 mhos 0 - None None - -
01/18/2018 07:15 Ice Watch 30.0F - - - 65 - - - - 0 mhos 0 - None None - -
01/18/2018 07:13 Ice Watch 29.8F - - - 65 - - - - 0 mhos 0 - None None - -
01/18/2018 07:05 Ice Watch 29.7F - - - 75 - - - - 0 mhos 0 - None None - -
01/18/2018 06:58 Ice Watch 29.5F - - - 70 - - - - 0 mhos 0 - None None - -
01/18/2018 06:55 Ice Watch 29.5F - - - 70 - - - - 0 mhos 0 - None None - -
01/18/2018 06:45 Ice Watch 29.7F - - - 70 - - - - 0 mhos 0 - None None - -
01/18/2018 06:43 Ice Watch 29.7F - - - 75 - - - - 0 mhos 0 - None None - -
01/18/2018 06:35 Ice Watch 29.5F - - - 75 - - - - 0 mhos 0 - None None - -
01/18/2018 06:28 Ice Watch 29.3F - - - 80 - - - - 0 mhos 0 - None None - -
01/18/2018 06:25 Ice Watch 29.1F - - - 80 - - - - 0 mhos 0 - None None - -
Change End Date:

Copyright © 1998-2015 Vaisala, Inc.
All Rights Reserved
Send comments about the data to:
SCAN Web ® is a registered trademark of Vaisala, Inc.
SCAN Web Version 6.0